亚太6E

导读

亚太6E卫星是中国自主研发的新一代高通量通信卫星,由中国航天科技集团研制,于2023年成功发射。该卫星采用东方红四号增强型平台,主要覆盖中国及亚太地区,提供广播、宽带互联网和应急通信等服务。具备大容量、高带宽和高灵活性,支持4K/8K高清视频传输,广泛应用于民用和商业领域,提升了区域通信能力与服务质量。

基本信息
目录编号:
55239
目录名称:
APSTAR 6E
国际标识:
2023-005A
轨道中心:
EARTH
卫星名称:
亚太6E
卫星全名:
亚太6E
卫星状态:
在轨 (已飞行1252 天)
发射日期:
2023-01-12 UTC
国别 :
中国 (CN)
星等 :
--
轨道信息
数据来源 国际轨道数据 AOE轨道数据
星历时间 2026-06-16T01:07:09+0800
2天前
查看轨道信息
2026-06-17T04:00:00+0800
21小时前
查看轨道信息
半长轴 42165.794km 42165.85km
偏心率 0.0001114 0.0001116
轨道倾角 0.037° 0.034°
近地点辐角 313.008° 312.969°
升交点赤经 251.552° 249.029°
平近点角 90.237° 137.099°
近地点 35782.959km 35783.007km
远地点 35792.355km 35792.419km
周期 1436.151分钟 1436.154分钟
每日圈数 1.00268 1.002678
详细信息
卫星平台:
东方红三号E
平衡模式:
三轴平衡
覆盖范围:
东南亚地区
载荷:
2台LIPS-300离子推力器,2台SPT-140D霍尔推力器
运营商:
中国空间技术研究院
运营商所在国:
中国
制造商(研发单位):
中国空间技术研究院
制造商所在国:
中国
使用方式:
暂无
预期寿命:
15年
卫星简介
亚太6E(APStar 6E)是基于东方红三号E(DFH-3E)平台建造的首颗卫星。 卫星本体质量2.09吨,配置2台LIPS-300离子推力器和2台SPT-140D霍尔推力器。其中,SPT-140D霍尔推力器的推力更大,但比冲相比LIPS-300离子推力器来说更低,因此用于卫星从亚同步转移轨道升轨至地球静止轨道。而LIPS-300离子推力器用于静止轨道保位。卫星主要用于为东南亚地区提供高通量通信服务,卫星配置25个Ku用户波束和3个Ka信关站波束,通信总容量超过30 Gbps。 卫星携带一个独立推进舱,质量2.21吨,作用类似远征系列上面级。推进舱装备一台490牛主发动机和多台10牛RCS推进器。这些发动机都使用常温推进剂。推进舱将卫星轨道提升到约2000千米x7000千米后分离。推进舱分离后,卫星将使用霍尔推进器继续提升轨道,直到进入GEO。
2D轨道图
3D轨道图
轨道高度分析图
轨道倾角分析图
轨道综合分析图
查看轨道综合分析图